This is the latest recevied weather packets stored in our database for station/object W5COG. If no packets are shown the sender has not sent any weather packets the latest 10 day(s).
| Time | Temp. | Humidity | Pressure | Rain* | Wind** | Luminosity | Snow |
|---|---|---|---|---|---|---|---|
| 1788135029 | 97° F | 28% | 758.4 mmHg | 0 in | - | 23 W/m² | - |
| 1788134729 | 97° F | 28% | 758.5 mmHg | 0 in | - | 25 W/m² | - |
| 1788133829 | 98° F | 27% | 758.5 mmHg | 0 in | - | 30 W/m² | - |
| 1788133529 | 98° F | 27% | 758.5 mmHg | 0 in | - | 31 W/m² | - |
| 1788133229 | 98° F | 26% | 758.5 mmHg | 0 in | - | 33 W/m² | - |
| 1788132929 | 99° F | 26% | 758.5 mmHg | 0 in | - | 34 W/m² | - |
| 1788128429 | 99° F | 24% | 758.5 mmHg | 0 in | - | 422 W/m² | - |
| 1788128129 | 99° F | 25% | 758.6 mmHg | 0 in | - | 394 W/m² | - |
| 1788127229 | 100° F | 25% | 758.7 mmHg | 0 in | - | 351 W/m² | - |
| 1788126929 | 100° F | 25% | 758.7 mmHg | 0 in | - | 355 W/m² | - |
| 1788124229 | 100° F | 26% | 758.8 mmHg | 0 in | - | 557 W/m² | - |
| 1788123929 | 100° F | 27% | 758.9 mmHg | 0 in | - | 720 W/m² | - |
| 1788123029 | 103° F | 24% | 759.1 mmHg | 0 in | - | 593 W/m² | - |
| 1788122729 | 103° F | 24% | 759.1 mmHg | 0 in | - | 746 W/m² | - |
| 1788122429 | 102° F | 25% | 759.1 mmHg | 0 in | - | 761 W/m² | - |
| 1788122129 | 102° F | 26% | 759.1 mmHg | 0 in | - | 758 W/m² | - |
| 1788120629 | 102° F | 25% | 759.3 mmHg | 0 in | - | 786 W/m² | - |
| 1788120329 | 102° F | 26% | 759.4 mmHg | 0 in | - | 825 W/m² | - |
| 1788120029 | 102° F | 27% | 759.4 mmHg | 0 in | - | 739 W/m² | - |
| 1788119729 | 102° F | 26% | 759.4 mmHg | 0 in | - | 843 W/m² | - |
| 1788119429 | 102° F | 26% | 759.5 mmHg | 0 in | - | 873 W/m² | - |
| 1788119129 | 102° F | 25% | 759.6 mmHg | 0 in | - | 594 W/m² | - |
| 1788117029 | 101° F | 26% | 759.9 mmHg | 0 in | - | 711 W/m² | - |
| 1788116729 | 101° F | 26% | 759.9 mmHg | 0 in | - | 639 W/m² | - |
| 1788112829 | 99° F | 29% | 760.3 mmHg | 0 in | - | 730 W/m² | - |
* Rain latest hour (hover to see other rain measurements)
** Current wind speed in m/s (hover to see current wind gust speed)